#datetime,building,power
2022-07-28T00:01:00,pkn,1.20
2022-07-28T00:03:00,pkn,2.40
2022-07-28T00:05:00,pkn,1.20
2022-07-28T00:07:00,pkn,1.20
2022-07-28T00:09:00,pkn,8.40
2022-07-28T00:11:00,pkn,9.60
2022-07-28T00:13:00,pkn,8.40
2022-07-28T00:14:00,pkn,6.00
2022-07-28T00:16:00,pkn,9.60
2022-07-28T00:18:00,pkn,8.40
2022-07-28T00:20:00,pkn,9.60
2022-07-28T00:21:00,pkn,1.20
2022-07-28T00:22:00,pkn,4.80
2022-07-28T00:24:00,pkn,2.40
2022-07-28T00:26:00,pkn,1.20
2022-07-28T00:28:00,pkn,1.20
2022-07-28T00:30:00,pkn,1.20
2022-07-28T00:32:00,pkn,1.20
2022-07-28T00:34:00,pkn,1.20
2022-07-28T00:36:00,pkn,1.20
2022-07-28T00:38:00,pkn,2.40
2022-07-28T00:41:00,pkn,1.20
2022-07-28T00:43:00,pkn,9.60
2022-07-28T00:45:00,pkn,9.60
2022-07-28T00:47:00,pkn,10.80
2022-07-28T00:48:00,pkn,3.60
2022-07-28T00:50:00,pkn,9.60
2022-07-28T00:52:00,pkn,6.00
2022-07-28T00:53:00,pkn,1.20
2022-07-28T00:55:00,pkn,1.20
2022-07-28T00:56:00,pkn,1.20
2022-07-28T00:58:00,pkn,1.20
2022-07-28T01:00:00,pkn,1.20
2022-07-28T01:02:00,pkn,1.20
2022-07-28T01:04:00,pkn,1.20
2022-07-28T01:07:00,pkn,1.20
2022-07-28T01:08:00,pkn,1.20
2022-07-28T01:10:00,pkn,1.20
2022-07-28T01:11:00,pkn,1.20
2022-07-28T01:13:00,pkn,1.20
2022-07-28T01:15:00,pkn,1.20
2022-07-28T01:18:00,pkn,2.40
2022-07-28T01:19:00,pkn,2.40
2022-07-28T01:21:00,pkn,9.60
2022-07-28T01:23:00,pkn,9.60
2022-07-28T01:25:00,pkn,9.60
2022-07-28T01:27:00,pkn,9.60
2022-07-28T01:29:00,pkn,1.20
2022-07-28T01:30:00,pkn,1.20
2022-07-28T01:32:00,pkn,1.20
2022-07-28T01:33:00,pkn,1.20
2022-07-28T01:35:00,pkn,1.20
2022-07-28T01:36:00,pkn,1.20
2022-07-28T01:39:00,pkn,2.40
2022-07-28T01:41:00,pkn,1.20
2022-07-28T01:42:00,pkn,1.20
2022-07-28T01:44:00,pkn,1.20
2022-07-28T01:46:00,pkn,1.20
2022-07-28T01:47:00,pkn,1.20
2022-07-28T01:49:00,pkn,1.20
2022-07-28T01:51:00,pkn,1.20
2022-07-28T01:52:00,pkn,1.20
2022-07-28T01:54:00,pkn,1.20
2022-07-28T01:56:00,pkn,2.40
2022-07-28T01:58:00,pkn,1.20
2022-07-28T02:00:00,pkn,1.20
2022-07-28T02:02:00,pkn,1.20
2022-07-28T02:03:00,pkn,1.20
2022-07-28T02:05:00,pkn,1.20
2022-07-28T02:06:00,pkn,3.60
2022-07-28T02:07:00,pkn,3.60
2022-07-28T02:08:00,pkn,1.20
2022-07-28T02:09:00,pkn,9.60
2022-07-28T02:11:00,pkn,8.40
2022-07-28T02:12:00,pkn,6.00
2022-07-28T02:14:00,pkn,7.20
2022-07-28T02:16:00,pkn,1.20
2022-07-28T02:18:00,pkn,1.20
2022-07-28T02:20:00,pkn,1.20
2022-07-28T02:22:00,pkn,1.20
2022-07-28T02:24:00,pkn,1.20
2022-07-28T02:26:00,pkn,1.20
2022-07-28T02:29:00,pkn,2.40
2022-07-28T02:31:00,pkn,1.20
2022-07-28T02:33:00,pkn,1.20
2022-07-28T02:36:00,pkn,1.20
2022-07-28T02:38:00,pkn,1.20
2022-07-28T02:39:00,pkn,1.20
2022-07-28T02:41:00,pkn,1.20
2022-07-28T02:43:00,pkn,1.20
2022-07-28T02:45:00,pkn,1.20
2022-07-28T02:47:00,pkn,1.20
2022-07-28T02:48:00,pkn,1.20
2022-07-28T02:50:00,pkn,1.20
2022-07-28T02:52:00,pkn,1.20
2022-07-28T02:54:00,pkn,1.20
2022-07-28T02:57:00,pkn,1.20
2022-07-28T02:59:00,pkn,1.20
2022-07-28T03:01:00,pkn,1.20
2022-07-28T03:03:00,pkn,2.40
2022-07-28T03:05:00,pkn,1.20
2022-07-28T03:07:00,pkn,1.20
2022-07-28T03:09:00,pkn,1.20
2022-07-28T03:11:00,pkn,1.20
2022-07-28T03:13:00,pkn,3.60
2022-07-28T03:14:00,pkn,4.80
2022-07-28T03:16:00,pkn,9.60
2022-07-28T03:17:00,pkn,4.80
2022-07-28T03:18:00,pkn,3.60
2022-07-28T03:19:00,pkn,6.00
2022-07-28T03:21:00,pkn,4.80
2022-07-28T03:24:00,pkn,2.40
2022-07-28T03:26:00,pkn,1.20
2022-07-28T03:27:00,pkn,1.20
2022-07-28T03:30:00,pkn,1.20
2022-07-28T03:32:00,pkn,2.40
2022-07-28T03:34:00,pkn,1.20
2022-07-28T03:36:00,pkn,1.20
2022-07-28T03:38:00,pkn,1.20
2022-07-28T03:39:00,pkn,1.20
2022-07-28T03:41:00,pkn,1.20
2022-07-28T03:43:00,pkn,1.20
2022-07-28T03:44:00,pkn,1.20
2022-07-28T03:46:00,pkn,1.20
2022-07-28T03:48:00,pkn,1.20
2022-07-28T03:52:00,pkn,2.40
2022-07-28T03:54:00,pkn,1.20
2022-07-28T03:55:00,pkn,1.20
2022-07-28T03:57:00,pkn,1.20
2022-07-28T03:59:00,pkn,1.20
2022-07-28T04:01:00,pkn,1.20
2022-07-28T04:03:00,pkn,1.20
2022-07-28T04:05:00,pkn,1.20
2022-07-28T04:07:00,pkn,1.20
2022-07-28T04:10:00,pkn,1.20
2022-07-28T04:11:00,pkn,1.20
2022-07-28T04:14:00,pkn,2.40
2022-07-28T04:17:00,pkn,1.20
2022-07-28T04:18:00,pkn,1.20
2022-07-28T04:21:00,pkn,1.20
2022-07-28T04:22:00,pkn,1.20
2022-07-28T04:25:00,pkn,1.20
2022-07-28T04:27:00,pkn,1.20
2022-07-28T04:29:00,pkn,1.20
2022-07-28T04:31:00,pkn,1.20
2022-07-28T04:32:00,pkn,1.20
2022-07-28T04:34:00,pkn,1.20
2022-07-28T04:35:00,pkn,1.20
2022-07-28T04:38:00,pkn,1.20
2022-07-28T04:40:00,pkn,1.20
2022-07-28T04:42:00,pkn,1.20
2022-07-28T04:44:00,pkn,1.20
2022-07-28T04:45:00,pkn,1.20
2022-07-28T04:47:00,pkn,1.20
2022-07-28T04:48:00,pkn,2.40
2022-07-28T04:49:00,pkn,6.00
2022-07-28T04:51:00,pkn,9.60
2022-07-28T04:52:00,pkn,3.60
2022-07-28T04:54:00,pkn,9.60
2022-07-28T04:56:00,pkn,6.00
2022-07-28T04:58:00,pkn,1.20
2022-07-28T05:01:00,pkn,1.20
2022-07-28T05:03:00,pkn,1.20
2022-07-28T05:05:00,pkn,1.20
2022-07-28T05:06:00,pkn,1.20
2022-07-28T05:08:00,pkn,1.20
2022-07-28T05:10:00,pkn,1.20
2022-07-28T05:12:00,pkn,1.20
2022-07-28T05:14:00,pkn,1.20
2022-07-28T05:15:00,pkn,1.20
2022-07-28T05:17:00,pkn,1.20
2022-07-28T05:19:00,pkn,1.20
2022-07-28T05:21:00,pkn,1.20
2022-07-28T05:23:00,pkn,2.40
2022-07-28T05:25:00,pkn,1.20
2022-07-28T05:27:00,pkn,1.20
2022-07-28T05:28:00,pkn,1.20
2022-07-28T05:31:00,pkn,1.20
2022-07-28T05:33:00,pkn,2.40
2022-07-28T05:35:00,pkn,1.20
2022-07-28T05:37:00,pkn,1.20
2022-07-28T05:39:00,pkn,1.20
2022-07-28T05:42:00,pkn,1.20
2022-07-28T05:44:00,pkn,1.20
2022-07-28T05:46:00,pkn,1.20
2022-07-28T05:47:00,pkn,1.20
2022-07-28T05:49:00,pkn,1.20
2022-07-28T05:51:00,pkn,1.20
2022-07-28T05:53:00,pkn,1.20
2022-07-28T05:55:00,pkn,1.20
2022-07-28T05:57:00,pkn,1.20
2022-07-28T05:59:00,pkn,1.20
2022-07-28T06:01:00,pkn,1.20
2022-07-28T06:03:00,pkn,1.20
2022-07-28T06:05:00,pkn,1.20
2022-07-28T06:08:00,pkn,1.20
2022-07-28T06:10:00,pkn,1.20
2022-07-28T06:12:00,pkn,1.20
2022-07-28T06:14:00,pkn,1.20
2022-07-28T06:16:00,pkn,1.20
2022-07-28T06:18:00,pkn,1.20
2022-07-28T06:20:00,pkn,1.20
2022-07-28T06:24:00,pkn,1.20
2022-07-28T06:26:00,pkn,8.40
2022-07-28T06:27:00,pkn,3.60
2022-07-28T06:29:00,pkn,9.60
2022-07-28T06:30:00,pkn,3.60
2022-07-28T06:32:00,pkn,9.60
2022-07-28T06:33:00,pkn,4.80
2022-07-28T06:35:00,pkn,3.60
2022-07-28T06:37:00,pkn,1.20
2022-07-28T06:39:00,pkn,1.20
2022-07-28T06:42:00,pkn,1.20
2022-07-28T06:44:00,pkn,1.20
2022-07-28T06:48:00,pkn,1.20
2022-07-28T06:50:00,pkn,1.20
2022-07-28T06:53:00,pkn,1.20
2022-07-28T06:56:00,pkn,1.20
2022-07-28T06:58:00,pkn,1.20
2022-07-28T07:00:00,pkn,1.20
2022-07-28T07:02:00,pkn,1.20
2022-07-28T07:04:00,pkn,1.20
2022-07-28T07:07:00,pkn,1.20
2022-07-28T07:09:00,pkn,1.20
2022-07-28T07:12:00,pkn,1.20
2022-07-28T07:14:00,pkn,1.20
2022-07-28T07:16:00,pkn,1.20
2022-07-28T07:17:00,pkn,1.20
2022-07-28T07:19:00,pkn,1.20
2022-07-28T07:21:00,pkn,1.20
2022-07-28T07:22:00,pkn,3.60
2022-07-28T07:24:00,pkn,9.60
2022-07-28T07:26:00,pkn,9.60
2022-07-28T07:27:00,pkn,3.60
2022-07-28T07:29:00,pkn,9.60
2022-07-28T07:30:00,pkn,3.60
2022-07-28T07:32:00,pkn,9.60
2022-07-28T07:33:00,pkn,3.60
2022-07-28T07:36:00,pkn,1.20
2022-07-28T07:40:00,pkn,1.20
2022-07-28T07:42:00,pkn,1.20
2022-07-28T07:46:00,pkn,1.20
2022-07-28T07:48:00,pkn,1.20
2022-07-28T07:51:00,pkn,1.20
2022-07-28T07:53:00,pkn,1.20
2022-07-28T07:56:00,pkn,1.20
2022-07-28T07:59:00,pkn,3.60
2022-07-28T08:01:00,pkn,8.40
2022-07-28T08:02:00,pkn,3.60
2022-07-28T08:03:00,pkn,4.80
2022-07-28T08:05:00,pkn,8.40
2022-07-28T08:07:00,pkn,9.60
2022-07-28T08:09:00,pkn,1.20
2022-07-28T08:12:00,pkn,1.20
2022-07-28T08:16:00,pkn,1.20
2022-07-28T08:19:00,pkn,1.20
2022-07-28T08:21:00,pkn,1.20
2022-07-28T08:25:00,pkn,1.20
2022-07-28T08:27:00,pkn,1.20
2022-07-28T08:30:00,pkn,1.20
2022-07-28T08:34:00,pkn,1.20
2022-07-28T08:37:00,pkn,1.20
2022-07-28T08:40:00,pkn,1.20
2022-07-28T08:42:00,pkn,1.20
2022-07-28T08:43:00,pkn,6.00
2022-07-28T08:45:00,pkn,9.60
2022-07-28T08:47:00,pkn,7.20
2022-07-28T08:48:00,pkn,6.00
2022-07-28T08:50:00,pkn,8.40
2022-07-28T08:51:00,pkn,6.00
2022-07-28T08:53:00,pkn,8.40
2022-07-28T08:55:00,pkn,8.40
2022-07-28T08:56:00,pkn,4.80
2022-07-28T08:57:00,pkn,4.80
2022-07-28T08:58:00,pkn,4.80
2022-07-28T09:00:00,pkn,10.80
2022-07-28T09:02:00,pkn,9.60
2022-07-28T09:04:00,pkn,6.00
2022-07-28T09:06:00,pkn,1.20
2022-07-28T09:09:00,pkn,1.20
2022-07-28T09:12:00,pkn,1.20
2022-07-28T09:15:00,pkn,1.20
2022-07-28T09:19:00,pkn,4.80
2022-07-28T09:21:00,pkn,8.40
2022-07-28T09:23:00,pkn,8.40
2022-07-28T09:24:00,pkn,4.80
2022-07-28T09:26:00,pkn,9.60
2022-07-28T09:27:00,pkn,3.60
2022-07-28T09:28:00,pkn,3.60
2022-07-28T09:30:00,pkn,9.60
2022-07-28T09:32:00,pkn,4.80
2022-07-28T09:33:00,pkn,1.20
2022-07-28T09:37:00,pkn,1.20
2022-07-28T09:41:00,pkn,1.20
2022-07-28T09:43:00,pkn,1.20
2022-07-28T09:47:00,pkn,1.20
2022-07-28T09:51:00,pkn,1.20
2022-07-28T09:54:00,pkn,1.20
2022-07-28T09:56:00,pkn,3.60
2022-07-28T09:57:00,pkn,4.80
2022-07-28T09:58:00,pkn,4.80
2022-07-28T10:00:00,pkn,9.60
2022-07-28T10:02:00,pkn,7.20
2022-07-28T10:04:00,pkn,9.60
2022-07-28T10:06:00,pkn,2.40
2022-07-28T10:08:00,pkn,1.20
2022-07-28T10:11:00,pkn,1.20
2022-07-28T10:14:00,pkn,1.20
2022-07-28T10:18:00,pkn,1.20
2022-07-28T10:21:00,pkn,1.20
2022-07-28T10:24:00,pkn,1.20
2022-07-28T10:27:00,pkn,1.20
2022-07-28T10:30:00,pkn,1.20
2022-07-28T10:32:00,pkn,1.20
2022-07-28T10:36:00,pkn,1.20
2022-07-28T10:38:00,pkn,1.20
2022-07-28T10:40:00,pkn,1.20
2022-07-28T10:42:00,pkn,1.20
2022-07-28T10:45:00,pkn,9.60
2022-07-28T10:47:00,pkn,9.60
2022-07-28T10:48:00,pkn,3.60
2022-07-28T10:50:00,pkn,9.60
2022-07-28T10:51:00,pkn,3.60
2022-07-28T10:52:00,pkn,2.40
2022-07-28T10:54:00,pkn,1.20
2022-07-28T10:57:00,pkn,1.20
2022-07-28T11:01:00,pkn,1.20
2022-07-28T11:04:00,pkn,1.20
2022-07-28T11:08:00,pkn,1.20
2022-07-28T11:12:00,pkn,1.20
2022-07-28T11:14:00,pkn,1.20
2022-07-28T11:17:00,pkn,1.20
2022-07-28T11:20:00,pkn,1.20
2022-07-28T11:22:00,pkn,1.20
2022-07-28T11:24:00,pkn,1.20
2022-07-28T11:26:00,pkn,1.20
2022-07-28T11:29:00,pkn,1.20
2022-07-28T11:31:00,pkn,1.20
2022-07-28T11:34:00,pkn,1.20
2022-07-28T11:35:00,pkn,1.20
2022-07-28T11:37:00,pkn,1.20
2022-07-28T11:40:00,pkn,1.20
2022-07-28T11:42:00,pkn,1.20
2022-07-28T11:46:00,pkn,1.20
2022-07-28T11:48:00,pkn,1.20
2022-07-28T11:50:00,pkn,1.20
2022-07-28T11:52:00,pkn,1.20
2022-07-28T11:54:00,pkn,1.20
2022-07-28T11:56:00,pkn,3.60
2022-07-28T11:58:00,pkn,8.40
2022-07-28T12:00:00,pkn,9.60
2022-07-28T12:02:00,pkn,9.60
2022-07-28T12:04:00,pkn,8.40
2022-07-28T12:07:00,pkn,1.20
2022-07-28T12:09:00,pkn,1.20
2022-07-28T12:10:00,pkn,1.20
2022-07-28T12:12:00,pkn,1.20
2022-07-28T12:14:00,pkn,1.20
2022-07-28T12:17:00,pkn,1.20
2022-07-28T12:18:00,pkn,1.20
2022-07-28T12:20:00,pkn,1.20
2022-07-28T12:23:00,pkn,1.20
2022-07-28T12:25:00,pkn,1.20
2022-07-28T12:28:00,pkn,1.20
2022-07-28T12:30:00,pkn,1.20
2022-07-28T12:31:00,pkn,1.20
2022-07-28T12:35:00,pkn,1.20
2022-07-28T12:36:00,pkn,1.20
2022-07-28T12:38:00,pkn,1.20
2022-07-28T12:41:00,pkn,1.20
2022-07-28T12:43:00,pkn,1.20
2022-07-28T12:46:00,pkn,1.20
2022-07-28T12:48:00,pkn,3.60
2022-07-28T12:50:00,pkn,9.60
2022-07-28T12:52:00,pkn,9.60
2022-07-28T12:54:00,pkn,7.20
2022-07-28T12:55:00,pkn,1.20
2022-07-28T12:56:00,pkn,6.00
2022-07-28T12:57:00,pkn,1.20
2022-07-28T12:59:00,pkn,1.20
2022-07-28T13:03:00,pkn,1.20
2022-07-28T13:04:00,pkn,1.20
2022-07-28T13:06:00,pkn,1.20
2022-07-28T13:09:00,pkn,1.20
2022-07-28T13:11:00,pkn,1.20
2022-07-28T13:13:00,pkn,1.20
2022-07-28T13:17:00,pkn,1.20
2022-07-28T13:19:00,pkn,1.20
2022-07-28T13:21:00,pkn,1.20
2022-07-28T13:22:00,pkn,1.20
2022-07-28T13:26:00,pkn,1.20
2022-07-28T13:27:00,pkn,1.20
2022-07-28T13:29:00,pkn,1.20
2022-07-28T13:31:00,pkn,1.20
2022-07-28T13:33:00,pkn,1.20
2022-07-28T13:35:00,pkn,1.20
2022-07-28T13:37:00,pkn,1.20
2022-07-28T13:39:00,pkn,1.20
2022-07-28T13:40:00,pkn,1.20
2022-07-28T13:42:00,pkn,1.20
2022-07-28T13:45:00,pkn,1.20
2022-07-28T13:47:00,pkn,1.20
2022-07-28T13:49:00,pkn,2.40
2022-07-28T13:51:00,pkn,1.20
2022-07-28T13:53:00,pkn,1.20
2022-07-28T13:55:00,pkn,6.00
2022-07-28T13:57:00,pkn,8.40
2022-07-28T13:59:00,pkn,9.60
2022-07-28T14:00:00,pkn,3.60
2022-07-28T14:02:00,pkn,8.40
2022-07-28T14:04:00,pkn,1.20
2022-07-28T14:06:00,pkn,1.20
2022-07-28T14:09:00,pkn,1.20
2022-07-28T14:11:00,pkn,2.40
2022-07-28T14:13:00,pkn,1.20
2022-07-28T14:16:00,pkn,1.20
2022-07-28T14:18:00,pkn,1.20
2022-07-28T14:20:00,pkn,1.20
2022-07-28T14:21:00,pkn,1.20
2022-07-28T14:23:00,pkn,1.20
2022-07-28T14:25:00,pkn,1.20
2022-07-28T14:26:00,pkn,1.20
2022-07-28T14:28:00,pkn,1.20
2022-07-28T14:30:00,pkn,1.20
2022-07-28T14:32:00,pkn,1.20
2022-07-28T14:34:00,pkn,1.20
2022-07-28T14:36:00,pkn,1.20
2022-07-28T14:39:00,pkn,1.20
2022-07-28T14:41:00,pkn,1.20
2022-07-28T14:42:00,pkn,1.20
2022-07-28T14:45:00,pkn,1.20
2022-07-28T14:47:00,pkn,1.20
2022-07-28T14:48:00,pkn,1.20
2022-07-28T14:51:00,pkn,1.20
2022-07-28T14:53:00,pkn,1.20
2022-07-28T14:55:00,pkn,1.20
2022-07-28T14:57:00,pkn,2.40
2022-07-28T14:59:00,pkn,1.20
2022-07-28T15:01:00,pkn,1.20
2022-07-28T15:03:00,pkn,1.20
2022-07-28T15:05:00,pkn,1.20
2022-07-28T15:06:00,pkn,1.20
2022-07-28T15:07:00,pkn,1.20
2022-07-28T15:08:00,pkn,1.20
2022-07-28T15:10:00,pkn,1.20
2022-07-28T15:11:00,pkn,2.40
2022-07-28T15:13:00,pkn,9.60
2022-07-28T15:15:00,pkn,9.60
2022-07-28T15:17:00,pkn,9.60
2022-07-28T15:18:00,pkn,3.60
2022-07-28T15:20:00,pkn,9.60
2022-07-28T15:22:00,pkn,9.60
2022-07-28T15:23:00,pkn,4.80
2022-07-28T15:25:00,pkn,1.20
2022-07-28T15:27:00,pkn,1.20
2022-07-28T15:29:00,pkn,1.20
2022-07-28T15:31:00,pkn,1.20
2022-07-28T15:34:00,pkn,1.20
2022-07-28T15:36:00,pkn,2.40
2022-07-28T15:38:00,pkn,1.20
2022-07-28T15:40:00,pkn,1.20
2022-07-28T15:42:00,pkn,1.20
2022-07-28T15:44:00,pkn,1.20
2022-07-28T15:46:00,pkn,3.60
2022-07-28T15:48:00,pkn,8.40
2022-07-28T15:49:00,pkn,4.80
2022-07-28T15:51:00,pkn,8.40
2022-07-28T15:52:00,pkn,4.80
2022-07-28T15:54:00,pkn,8.40
2022-07-28T15:55:00,pkn,3.60
2022-07-28T15:58:00,pkn,1.20
2022-07-28T15:59:00,pkn,1.20
2022-07-28T16:01:00,pkn,1.20
2022-07-28T16:03:00,pkn,1.20
2022-07-28T16:05:00,pkn,1.20
2022-07-28T16:07:00,pkn,1.20
2022-07-28T16:10:00,pkn,1.20
2022-07-28T16:12:00,pkn,1.20
2022-07-28T16:14:00,pkn,1.20
2022-07-28T16:16:00,pkn,1.20
2022-07-28T16:18:00,pkn,2.40
2022-07-28T16:20:00,pkn,1.20
2022-07-28T16:22:00,pkn,1.20
2022-07-28T16:24:00,pkn,1.20
2022-07-28T16:26:00,pkn,1.20
2022-07-28T16:28:00,pkn,1.20
2022-07-28T16:30:00,pkn,1.20
2022-07-28T16:32:00,pkn,2.40
2022-07-28T16:35:00,pkn,1.20
2022-07-28T16:36:00,pkn,1.20
2022-07-28T16:38:00,pkn,1.20
2022-07-28T16:40:00,pkn,1.20
2022-07-28T16:42:00,pkn,2.40
2022-07-28T16:43:00,pkn,4.80
2022-07-28T16:45:00,pkn,9.60
2022-07-28T16:46:00,pkn,3.60
2022-07-28T16:47:00,pkn,4.80
2022-07-28T16:48:00,pkn,1.20
2022-07-28T16:49:00,pkn,7.20
2022-07-28T16:50:00,pkn,6.00
2022-07-28T16:52:00,pkn,1.20
2022-07-28T16:55:00,pkn,1.20
2022-07-28T16:56:00,pkn,1.20
2022-07-28T16:58:00,pkn,1.20
2022-07-28T17:01:00,pkn,1.20
2022-07-28T17:03:00,pkn,1.20
2022-07-28T17:05:00,pkn,1.20
2022-07-28T17:07:00,pkn,1.20
2022-07-28T17:08:00,pkn,1.20
2022-07-28T17:10:00,pkn,1.20
2022-07-28T17:11:00,pkn,1.20
2022-07-28T17:12:00,pkn,1.20
2022-07-28T17:13:00,pkn,1.20
2022-07-28T17:15:00,pkn,2.40
2022-07-28T17:17:00,pkn,1.20
2022-07-28T17:19:00,pkn,1.20
2022-07-28T17:20:00,pkn,1.20
2022-07-28T17:23:00,pkn,1.20
2022-07-28T17:24:00,pkn,1.20
2022-07-28T17:26:00,pkn,1.20
2022-07-28T17:28:00,pkn,1.20
2022-07-28T17:30:00,pkn,1.20
2022-07-28T17:32:00,pkn,1.20
2022-07-28T17:33:00,pkn,1.20
2022-07-28T17:35:00,pkn,1.20
2022-07-28T17:37:00,pkn,1.20
2022-07-28T17:39:00,pkn,1.20
2022-07-28T17:41:00,pkn,1.20
2022-07-28T17:43:00,pkn,1.20
2022-07-28T17:45:00,pkn,1.20
2022-07-28T17:47:00,pkn,1.20
2022-07-28T17:48:00,pkn,1.20
2022-07-28T17:50:00,pkn,1.20
2022-07-28T17:51:00,pkn,1.20
2022-07-28T17:53:00,pkn,1.20
2022-07-28T17:54:00,pkn,1.20
2022-07-28T17:55:00,pkn,1.20
2022-07-28T17:57:00,pkn,1.20
2022-07-28T17:59:00,pkn,1.20
2022-07-28T18:01:00,pkn,2.40
2022-07-28T18:03:00,pkn,1.20
2022-07-28T18:05:00,pkn,1.20
2022-07-28T18:06:00,pkn,3.60
2022-07-28T18:08:00,pkn,8.40
2022-07-28T18:10:00,pkn,10.80
2022-07-28T18:11:00,pkn,4.80
2022-07-28T18:12:00,pkn,4.80
2022-07-28T18:14:00,pkn,7.20
2022-07-28T18:16:00,pkn,1.20
2022-07-28T18:17:00,pkn,1.20
2022-07-28T18:18:00,pkn,1.20
2022-07-28T18:20:00,pkn,1.20
2022-07-28T18:22:00,pkn,1.20
2022-07-28T18:24:00,pkn,1.20
2022-07-28T18:26:00,pkn,1.20
2022-07-28T18:28:00,pkn,1.20
2022-07-28T18:30:00,pkn,1.20
2022-07-28T18:32:00,pkn,1.20
2022-07-28T18:33:00,pkn,1.20
2022-07-28T18:35:00,pkn,1.20
2022-07-28T18:37:00,pkn,1.20
2022-07-28T18:38:00,pkn,1.20
2022-07-28T18:40:00,pkn,1.20
2022-07-28T18:42:00,pkn,1.20
2022-07-28T18:44:00,pkn,1.20
2022-07-28T18:46:00,pkn,1.20
2022-07-28T18:49:00,pkn,2.40
2022-07-28T18:52:00,pkn,1.20
2022-07-28T18:54:00,pkn,1.20
2022-07-28T18:56:00,pkn,1.20
2022-07-28T18:57:00,pkn,1.20
2022-07-28T18:59:00,pkn,1.20
2022-07-28T19:02:00,pkn,2.40
2022-07-28T19:04:00,pkn,1.20
2022-07-28T19:07:00,pkn,1.20
2022-07-28T19:08:00,pkn,1.20
2022-07-28T19:10:00,pkn,1.20
2022-07-28T19:11:00,pkn,2.40
2022-07-28T19:13:00,pkn,9.60
2022-07-28T19:14:00,pkn,3.60
2022-07-28T19:15:00,pkn,1.20
2022-07-28T19:16:00,pkn,8.40
2022-07-28T19:18:00,pkn,9.60
2022-07-28T19:19:00,pkn,1.20
2022-07-28T19:20:00,pkn,7.20
2022-07-28T19:21:00,pkn,1.20
2022-07-28T19:22:00,pkn,1.20
2022-07-28T19:24:00,pkn,1.20
2022-07-28T19:25:00,pkn,1.20
2022-07-28T19:27:00,pkn,1.20
2022-07-28T19:29:00,pkn,1.20
2022-07-28T19:30:00,pkn,1.20
2022-07-28T19:32:00,pkn,1.20
2022-07-28T19:34:00,pkn,1.20
2022-07-28T19:36:00,pkn,2.40
2022-07-28T19:38:00,pkn,1.20
2022-07-28T19:41:00,pkn,1.20
2022-07-28T19:43:00,pkn,1.20
2022-07-28T19:45:00,pkn,1.20
2022-07-28T19:48:00,pkn,1.20
2022-07-28T19:52:00,pkn,1.20
2022-07-28T19:54:00,pkn,1.20
2022-07-28T19:58:00,pkn,1.20
2022-07-28T20:00:00,pkn,1.20
2022-07-28T20:04:00,pkn,1.20
2022-07-28T20:06:00,pkn,1.20
2022-07-28T20:09:00,pkn,1.20
2022-07-28T20:12:00,pkn,1.20
2022-07-28T20:16:00,pkn,1.20
2022-07-28T20:18:00,pkn,1.20
2022-07-28T20:21:00,pkn,1.20
2022-07-28T20:25:00,pkn,1.20
2022-07-28T20:27:00,pkn,1.20
2022-07-28T20:30:00,pkn,1.20
2022-07-28T20:32:00,pkn,2.40
2022-07-28T20:33:00,pkn,4.80
2022-07-28T20:34:00,pkn,4.80
2022-07-28T20:36:00,pkn,9.60
2022-07-28T20:37:00,pkn,3.60
2022-07-28T20:39:00,pkn,9.60
2022-07-28T20:41:00,pkn,1.20
2022-07-28T20:45:00,pkn,1.20
2022-07-28T20:47:00,pkn,1.20
2022-07-28T20:49:00,pkn,1.20
2022-07-28T20:51:00,pkn,1.20
2022-07-28T20:53:00,pkn,2.40
2022-07-28T20:55:00,pkn,1.20
2022-07-28T20:57:00,pkn,1.20
2022-07-28T20:59:00,pkn,1.20
2022-07-28T21:00:00,pkn,1.20
2022-07-28T21:02:00,pkn,1.20
2022-07-28T21:04:00,pkn,1.20
2022-07-28T21:06:00,pkn,2.40
2022-07-28T21:09:00,pkn,1.20
2022-07-28T21:11:00,pkn,2.40
2022-07-28T21:13:00,pkn,1.20
2022-07-28T21:15:00,pkn,1.20
2022-07-28T21:17:00,pkn,1.20
2022-07-28T21:19:00,pkn,1.20
2022-07-28T21:21:00,pkn,1.20
2022-07-28T21:23:00,pkn,1.20
2022-07-28T21:25:00,pkn,1.20
2022-07-28T21:28:00,pkn,1.20
2022-07-28T21:29:00,pkn,1.20
2022-07-28T21:31:00,pkn,1.20
2022-07-28T21:32:00,pkn,1.20
2022-07-28T21:35:00,pkn,1.20
2022-07-28T21:37:00,pkn,1.20
2022-07-28T21:38:00,pkn,1.20
2022-07-28T21:40:00,pkn,1.20
2022-07-28T21:43:00,pkn,2.40
2022-07-28T21:46:00,pkn,2.40
2022-07-28T21:48:00,pkn,1.20
2022-07-28T21:49:00,pkn,1.20
2022-07-28T21:51:00,pkn,1.20
2022-07-28T21:53:00,pkn,2.40
2022-07-28T21:55:00,pkn,1.20
2022-07-28T21:56:00,pkn,1.20
2022-07-28T21:58:00,pkn,1.20
2022-07-28T22:00:00,pkn,2.40
2022-07-28T22:03:00,pkn,2.40
2022-07-28T22:05:00,pkn,1.20
2022-07-28T22:06:00,pkn,1.20
2022-07-28T22:08:00,pkn,8.40
2022-07-28T22:10:00,pkn,9.60
2022-07-28T22:12:00,pkn,10.80
2022-07-28T22:14:00,pkn,9.60
2022-07-28T22:15:00,pkn,4.80
2022-07-28T22:17:00,pkn,9.60
2022-07-28T22:19:00,pkn,10.80
2022-07-28T22:21:00,pkn,9.60
2022-07-28T22:22:00,pkn,3.60
2022-07-28T22:23:00,pkn,6.00
2022-07-28T22:25:00,pkn,3.60
2022-07-28T22:27:00,pkn,2.40
2022-07-28T22:28:00,pkn,1.20
2022-07-28T22:30:00,pkn,2.40
2022-07-28T22:33:00,pkn,2.40
2022-07-28T22:34:00,pkn,1.20
2022-07-28T22:36:00,pkn,2.40
2022-07-28T22:39:00,pkn,2.40
2022-07-28T22:41:00,pkn,2.40
2022-07-28T22:43:00,pkn,1.20
2022-07-28T22:44:00,pkn,7.20
2022-07-28T22:45:00,pkn,2.40
2022-07-28T22:46:00,pkn,8.40
2022-07-28T22:47:00,pkn,6.00
2022-07-28T22:49:00,pkn,9.60
2022-07-28T22:50:00,pkn,4.80
2022-07-28T22:51:00,pkn,4.80
2022-07-28T22:52:00,pkn,2.40
2022-07-28T22:53:00,pkn,9.60
2022-07-28T22:55:00,pkn,8.40
2022-07-28T22:57:00,pkn,8.40
2022-07-28T22:58:00,pkn,1.20
2022-07-28T23:00:00,pkn,1.20
2022-07-28T23:02:00,pkn,2.40
2022-07-28T23:05:00,pkn,2.40
2022-07-28T23:06:00,pkn,1.20
2022-07-28T23:07:00,pkn,1.20
2022-07-28T23:09:00,pkn,1.20
2022-07-28T23:10:00,pkn,1.20
2022-07-28T23:11:00,pkn,1.20
2022-07-28T23:13:00,pkn,1.20
2022-07-28T23:14:00,pkn,1.20
2022-07-28T23:16:00,pkn,2.40
2022-07-28T23:18:00,pkn,1.20
2022-07-28T23:20:00,pkn,2.40
2022-07-28T23:21:00,pkn,2.40
2022-07-28T23:22:00,pkn,4.80
2022-07-28T23:24:00,pkn,10.80
2022-07-28T23:25:00,pkn,4.80
2022-07-28T23:26:00,pkn,4.80
2022-07-28T23:28:00,pkn,10.80
2022-07-28T23:29:00,pkn,3.60
2022-07-28T23:31:00,pkn,10.80
2022-07-28T23:32:00,pkn,2.40
2022-07-28T23:34:00,pkn,1.20
2022-07-28T23:35:00,pkn,1.20
2022-07-28T23:37:00,pkn,1.20
2022-07-28T23:39:00,pkn,1.20
2022-07-28T23:41:00,pkn,2.40
2022-07-28T23:43:00,pkn,1.20
2022-07-28T23:45:00,pkn,1.20
2022-07-28T23:47:00,pkn,1.20
2022-07-28T23:49:00,pkn,1.20
2022-07-28T23:51:00,pkn,3.60
2022-07-28T23:52:00,pkn,6.00
2022-07-28T23:53:00,pkn,3.60
2022-07-28T23:54:00,pkn,2.40
2022-07-28T23:55:00,pkn,8.40
2022-07-28T23:56:00,pkn,4.80
2022-07-28T23:58:00,pkn,9.60
